Change the Weather History Date:

Tuesday, March 12, 2013

  Actual Average Record
Temperature  
Mean Temperature 11 °F 23 °F  
Max Temperature 22 °F 32 °F 59 °F (2015)
Min Temperature 0 °F 14 °F -22 °F (1956)
Degree Days  
Heating Degree Days 54 42  
Month to date heating degree days 572 539  
Since 1 July heating degree days 7573 7689  
Cooling Degree Days 0 0  
Month to date cooling degree days 0 0  
Year to date cooling degree days 0 0  
Moisture  
Dew Point 11 °F    
Average Humidity 83    
Maximum Humidity 95    
Minimum Humidity 71    
Precipitation  
Precipitation 0.02 in 0.03 in 0.93 in (1990)
Month to date precipitation 0.41 0.36  
Year to date precipitation 1.20 1.43  
Snow  
Snow 0.20 in 0.30 in - ()
Month to date snowfall 9.7 3.6  
Since 1 July snowfall 39.6 40.8  
Snow Depth 8.00 in    
Sea Level Pressure  
Sea Level Pressure 30.15 in    
Wind  
Wind Speed 14 mph (NNW)    
Max Wind Speed 26 mph    
Max Gust Speed 32 mph    
Visibility 8 miles    
Events Snow    
T = Trace of Precipitation, MM = Missing Value Source: NWS Daily Summary

Daily Weather History Graph

Daily Weather History Graph

Search for Another Location

Airport or City:

Trip Planner

Search our weather history database for the weather conditions in past years. The results will help you decide how hot, cold, wet, or windy it might be!

Date:

Astronomy

Mar. 12, 2013 Rise Set
Actual Time 7:47 AM CDT 7:30 PM CDT
Civil Twilight 7:16 AM CDT 8:01 PM CDT
Nautical Twilight 6:40 AM CDT 8:37 PM CDT
Astronomical Twilight 6:03 AM CDT 9:13 PM CDT
Moon 7:47 AM CDT (3/12) 8:56 PM CDT (3/12)
Length of Visible Light 12h 44m
Length of Day
11h 42m
New Moon, 1% of the Moon is Illuminated
Mar 12
New Moon
Mar 19
First Quarter
Mar 27
Full
Apr 2
Last Quarter
Apr 10
New

Hourly Weather History & Observations

Time (CDT) Temp. Windchill Dew Point Humidity Pressure Visibility Wind Dir Wind Speed Gust Speed Precip Events Conditions
12:53 AM 17.1 °F 5.8 °F 14.0 °F 88% 29.94 in 10.0 mi NNW 9.2 mph - 0.00 in   Overcast
1:53 AM 16.0 °F 3.6 °F 12.9 °F 88% 29.94 in 10.0 mi North 10.4 mph - N/A   Overcast
2:53 AM 16.0 °F 2.9 °F 12.0 °F 84% 29.97 in 6.0 mi NNW 11.5 mph - 0.00 in Snow Light Snow
3:30 AM 15.8 °F 2.1 °F 12.2 °F 86% 29.93 in 2.0 mi NNW 12.7 mph - 0.00 in Snow Light Snow
3:53 AM 16.0 °F 2.3 °F 12.0 °F 84% 29.99 in 3.0 mi NNW 12.7 mph - 0.01 in Snow Light Snow
4:09 AM 15.8 °F 2.1 °F 12.2 °F 86% 29.94 in 2.5 mi NNW 12.7 mph - 0.00 in Snow Light Snow
4:17 AM 15.8 °F 2.1 °F 12.2 °F 86% 29.94 in 3.0 mi NNW 12.7 mph - 0.00 in Snow Light Snow
4:53 AM 15.1 °F 1.8 °F 12.0 °F 88% 30.00 in 3.0 mi NNW 11.5 mph - 0.00 in Snow Light Snow
5:53 AM 15.1 °F 1.8 °F 12.0 °F 88% 30.02 in 10.0 mi NNW 11.5 mph - 0.01 in   Overcast
6:53 AM 15.1 °F 0.5 °F 10.9 °F 84% 30.05 in 10.0 mi NW 13.8 mph - N/A   Overcast
7:53 AM 15.1 °F -0.1 °F 10.9 °F 84% 30.08 in 10.0 mi NNW 15.0 mph - N/A   Overcast
8:53 AM 14.0 °F 0.5 °F 9.0 °F 80% 30.10 in 10.0 mi NW 11.5 mph - N/A   Overcast
9:53 AM 12.9 °F -0.2 °F 9.0 °F 84% 30.12 in 10.0 mi NNW 10.4 mph - N/A   Mostly Cloudy
10:53 AM 19.0 °F 4.5 °F 12.9 °F 77% 30.15 in 10.0 mi NNW 16.1 mph - N/A   Mostly Cloudy
11:53 AM 19.9 °F 2.5 °F 15.1 °F 81% 30.17 in 10.0 mi North 25.3 mph - N/A   Scattered Clouds
12:53 PM 21.9 °F 5.5 °F 16.0 °F 78% 30.18 in 8.0 mi North 24.2 mph - N/A   Mostly Cloudy
1:17 PM 21.2 °F 4.2 °F 15.8 °F 80% 30.14 in 8.0 mi North 25.3 mph - N/A   Mostly Cloudy
1:53 PM 21.0 °F 4.3 °F 15.1 °F 78% 30.20 in 7.0 mi North 24.2 mph 32.2 mph N/A   Mostly Cloudy
2:53 PM 21.0 °F 5.0 °F 15.1 °F 78% 30.22 in 8.0 mi North 21.9 mph - N/A   Overcast
3:43 PM 21.2 °F 6.4 °F 15.8 °F 80% 30.17 in 10.0 mi NNW 18.4 mph - N/A   Mostly Cloudy
3:53 PM 21.0 °F 7.1 °F 15.1 °F 78% 30.23 in 10.0 mi NNW 16.1 mph - N/A   Mostly Cloudy
4:27 PM 21.2 °F 6.8 °F 15.8 °F 80% 30.18 in 10.0 mi NNW 17.3 mph - N/A   Scattered Clouds
4:53 PM 21.0 °F 6.2 °F 14.0 °F 74% 30.24 in 10.0 mi NNW 18.4 mph - N/A   Scattered Clouds
5:53 PM 19.9 °F 6.2 °F 12.9 °F 74% 30.26 in 10.0 mi North 15.0 mph - N/A   Scattered Clouds
6:53 PM 18.0 °F 3.1 °F 10.9 °F 74% 30.29 in 10.0 mi NNW 16.1 mph - N/A   Clear
7:53 PM 14.0 °F 2.0 °F 8.1 °F 77% 30.30 in 10.0 mi North 9.2 mph - N/A   Clear
8:37 PM 12.2 °F 1.7 °F 6.8 °F 79% 30.27 in 10.0 mi NW 6.9 mph - N/A   Mostly Cloudy
8:53 PM 12.0 °F 0.5 °F 7.0 °F 80% 30.33 in 10.0 mi NNW 8.1 mph - N/A   Mostly Cloudy
9:20 PM 10.4 °F -1.5 °F 5.0 °F 79% 30.27 in 10.0 mi NNW 8.1 mph - N/A   Partly Cloudy
9:53 PM 8.1 °F -4.3 °F 3.9 °F 83% 30.34 in 10.0 mi NW 8.1 mph - N/A   Partly Cloudy
10:53 PM 5.0 °F -6.9 °F 1.9 °F 87% 30.34 in 10.0 mi WNW 6.9 mph - N/A   Clear
11:53 PM 1.9 °F -10.6 °F -0.9 °F 88% 30.35 in 10.0 mi West 6.9 mph - N/A   Clear